Meteo Giornale » Osservazioni meteo Australia » Richmond Aus-Afb
ore: 13:00 - Osservazioni Meteo Richmond Aus-Afb
Lat. 33° 36' S Lon. 150° 47' E Alt. 21 metri s.l.m.
26 °C
Sereno
Temp. 24 Ore
6 °C
26 °C
Nord-Ovest
7.4 Km/h
Dew point 6 °C
Umidità 27 %
Visibilità 10 Km
Il sole sorge alle ore 06:15
Il sole tramonta alle ore 17:38
| Data e Ora | Cielo e Fenomeni | T °C | DP °C | Um. % | Pres. hPa | Vis. km | Vento km/h | |
|---|---|---|---|---|---|---|---|---|
| Oggi h: 13:00 | Sereno | 26 | 6 | 27 | 1020 | 10 | NO 7.4 | |
| Oggi h: 12:30 | Sereno | 26 | 7 | 29 | 1021 | 10 | N 5.5 | |
| Oggi h: 12:00 | Sereno | 24 | 10 | 41 | 1022 | 10 | N 5.5 | |
| Oggi h: 11:30 | Sereno | 22 | 11 | 49 | 1023 | 10 | E 7.4 | |
| Oggi h: 11:00 | Sereno | 20 | 10 | 52 | 1024 | 10 | N 3.7 | |
| Oggi h: 10:30 | Sereno | 19 | 11 | 59 | 1024 | 10 | N 3.7 | |
| Oggi h: 10:00 | Sereno | 17 | 10 | 63 | 1025 | 10 | N 5.5 | |
| Oggi h: 09:30 | Sereno | 15 | 10 | 72 | 1026 | 10 | N 0 | |
| Oggi h: 09:00 | Sereno | 13 | 10 | 81 | 1026 | 10 | N 1.8 | |
| Oggi h: 08:30 | Sereno | 11 | 10 | 93 | 1027 | 10 | N 1.8 | |
| Oggi h: 08:00 | Poco Nuvoloso | 9 | 8 | 93 | 1027 | 10 | N 3.7 | |
| Oggi h: 07:56 | Nuvoloso | 9 | 9 | 100 | 1027 | 10 | N 1.8 | |
| Oggi h: 07:30 | Nebbia | 8 | 7 | 93 | 1027 | 0.3 | N 0 | |
| Oggi h: 07:00 | Nebbia | 6 | 6 | 100 | 1027 | 0.35 | N 0 | |
| Oggi h: 06:30 | Nebbia | 6 | 5 | 93 | 1026 | 0.25 | N 0 | |
| Oggi h: 06:00 | Pioggia | 6 | 5 | 93 | 1026 | 0.15 | N 0 | |
| Oggi h: 05:30 | Foschia | 6 | 5 | 93 | 1026 | 1 | N 0 | |
| Oggi h: 05:00 | Pioggia | 6 | 5 | 93 | 1026 | 0.35 | N 0 | |
| Oggi h: 04:30 | Nebbia | 7 | 6 | 93 | 1026 | 0.15 | N 0 | |
| Oggi h: 04:00 | Nebbia | 7 | 6 | 93 | 1026 | 0.1 | N 0 | |
| Oggi h: 03:30 | Nebbia | 7 | 6 | 93 | 1026 | 0.25 | N 0 | |
| Oggi h: 03:00 | Pioggia | 7 | 6 | 93 | 1027 | 3 | N 0 | |
| Oggi h: 02:34 | Foschia | 8 | 7 | 93 | 1027 | 4 | N 0 | |
| Oggi h: 02:32 | Coperto | 8 | 7 | 93 | 1027 | 10 | N 0 | |
| Oggi h: 02:30 | Molto Nuvoloso | 8 | 7 | 93 | 1027 | 10 | N 0 | |
| Oggi h: 02:00 | Pioggia | 9 | 8 | 93 | 1027 | 0.25 | N 0 | |
| Oggi h: 01:46 | Pioggia | 9 | 8 | 93 | 1027 | 1 | N 0 | |
| Oggi h: 01:30 | Pioggia | 9 | 8 | 93 | 1028 | 0.35 | N 0 | |
| Oggi h: 01:00 | Pioggia | 10 | 9 | 93 | 1028 | 0.15 | N 0 | |
| Oggi h: 00:44 | Pioggia | 10 | 9 | 93 | 1028 | 5 | N 0 | |
| Oggi h: 00:30 | Pioggia | 10 | 10 | 100 | 1028 | 10 | N 0 | |
| Oggi h: 00:00 | Sereno | 10 | 9 | 93 | 1028 | 10 | N 0 | |
| Ieri h: 23:30 | Sereno | 10 | 9 | 93 | 1028 | 10 | N 0 | |
| Ieri h: 23:00 | Sereno | 11 | 9 | 87 | 1029 | 10 | N 0 | |
| Ieri h: 22:30 | Sereno | 12 | 10 | 87 | 1029 | 10 | N 0 | |
| Ieri h: 22:00 | Sereno | 12 | 10 | 87 | 1029 | 10 | N 0 | |
| Ieri h: 21:30 | Sereno | 12 | 10 | 87 | 1029 | 10 | N 0 | |
| Ieri h: 21:00 | Sereno | 13 | 11 | 87 | 1029 | 10 | N 5.5 | |
| Ieri h: 20:30 | Sereno | 14 | 11 | 82 | 1029 | 10 | N 5.5 | |
| Ieri h: 20:00 | Sereno | 15 | 12 | 82 | 1029 | 10 | N 0 | |
| Ieri h: 19:30 | Sereno | 15 | 11 | 76 | 1029 | 10 | N 5.5 | |
| Ieri h: 19:00 | Sereno | 16 | 11 | 72 | 1028 | 10 | N 0 | |
| Ieri h: 18:30 | Sereno | 18 | 12 | 67 | 1028 | 10 | E 9.3 | |
| Ieri h: 18:00 | Sereno | 19 | 12 | 63 | 1028 | 10 | E 9.3 | |
| Ieri h: 17:30 | Sereno | 20 | 12 | 59 | 1027 | 10 | E/NE 14.8 | |
| Ieri h: 17:00 | Sereno | 22 | 11 | 49 | 1027 | 10 | E/NE 16.7 | |
| Ieri h: 16:30 | Sereno | 24 | 10 | 41 | 1027 | 10 | E/NE 11.1 | |
| Ieri h: 16:00 | Sereno | 24 | 8 | 35 | 1027 | 10 | E/NE 9.3 | |
| Ieri h: 15:30 | Sereno | 25 | 7 | 31 | 1027 | 10 | N 3.7 | |
| Ieri h: 15:00 | Sereno | 25 | 9 | 36 | 1027 | 10 | E/NE 9.3 | |
| Ieri h: 14:30 | Sereno | 24 | 9 | 38 | 1027 | 10 | E/NE 11.1 | |
| Ieri h: 14:00 | Sereno | 24 | 9 | 38 | 1028 | 10 | E 9.3 | |



